Miscellaneous Local Product
Issued by NWS North Platte, NE

Home | Current Version | Previous Version | Text Only | Print | Product List | Glossary On
Versions: 1 2 3 4 5 6 7 8 9 10 11 12 13 14 15 16 17 18 19 20 21 22 23 24 25 26 27 28 29 30 31 32 33 34 35 36 37 38 39 40 41 42 43 44 45 46 47 48 49 50
000
AXUS43 KLBF 180310
MISLBF


WESTERN AND NORTH CENTRAL NEBRASKA HOURLY WEATHER ROUNDUP
NATIONAL WEATHER SERVICE NORTH PLATTE NE
1000 PM CDT TUE OCT 17 2017

NOTE: "FAIR" INDICATES FEW OR NO CLOUDS BELOW 12,000 FEET WITH NO
SIGNIFICANT WEATHER AND/OR OBSTRUCTIONS TO VISIBILITY.

NOTE: STATIONS NOT REPORTING VARIABLES SUCH AS SKY/WEATHER OR
PRESSURE ARE PROVIDED BY RAWS AND APRS NETWORKS AND ARE NOT UNDER
NATIONAL WEATHER SERVICE QUALITY CONTROL.

...OBSERVATIONS IN AND NEAR THE EASTERN PANHANDLE OF NEBRASKA...

CITY           SKY/WX    TMP DP  RH WIND       PRES   REMARKS
PINE RIDGE     CLEAR     42  30  62 CALM      29.88F
GORDON         FAIR      52  26  35 SW7       29.90F
CHADRON        CLEAR     49  22  34 W10       29.89S
ALLIANCE       CLEAR     44  25  47 CALM      29.96S
SIDNEY         CLOUDY    45  24  43 W8        30.02F
CRESCENT LAKE    N/A     56  24  29 CALM        N/A
$$

...OBSERVATIONS IN NORTHERN NEBRASKA AND FAR SOUTHERN SOUTH DAKOTA...

CITY           SKY/WX    TMP DP  RH WIND       PRES   REMARKS
WINNER         FAIR      61  34  36 S12       29.84F
VALENTINE      CLEAR     60  28  29 SW9       29.88F
THEDFORD       CLEAR     52  30  42 SW3       29.95S
AINSWORTH      CLEAR     50  33  52 S8        29.91S
O`NEILL        CLEAR     57  42  55 S7        29.92S
ORD            CLEAR     50  37  61 S7        29.93F
BROKEN BOW     CLEAR     44  37  76 CALM      29.95F
VALENTINE NWR    N/A     56  27  32 SW6         N/A
HALSEY           N/A     63  27  25 S7          N/A
BUTTE            N/A     60  41  49 S9          N/A
CHAMBERS         N/A     57  36  46 CALM        N/A
EWING            N/A     56  40  55 CALM        N/A
$$

...OBSERVATIONS IN SOUTHWEST NEBRASKA AND FAR NORTHEAST COLORADO...

CITY           SKY/WX    TMP DP  RH WIND       PRES   REMARKS
WRAY           FAIR      59  27  29 S9        30.01F
HOLYOKE        FAIR      55  28  35 S9        30.00S
IMPERIAL       CLEAR     56  27  32 S9        29.99S
OGALLALA       CLEAR     62  26  25 W6        29.97S
NORTH PLATTE   CLEAR     55  33  43 SE6       29.95F
MCCOOK         CLEAR     59  36  42 S13       29.98F
LEXINGTON      CLEAR     58  37  45 SE6       29.97F
STAPLETON        N/A     54  33  44 S3          N/A
GOTHENBURG       N/A     57  32  39 E3          N/A
CALLAWAY         N/A     47  37  69 S8          N/A
$$

...OBSERVATIONS IN CENTRAL LINCOLN COUNTY AREA...

CITY           SKY/WX    TMP DP  RH WIND       PRES   REMARKS
N.P. AIRPORT   CLEAR     55  33  43 SE6       29.95F
N.P. DOWNTOWN    N/A     64  34  33 MISG        N/A
N.P. SOUTHEAST   N/A     65  33  30 S9          N/A
N.P. HILLCREST   N/A     64  33  31 SE8         N/A
$$

...SOME OBSERVATIONS FROM AROUND THE REGION...

CITY           SKY/WX    TMP DP  RH WIND       PRES   REMARKS
DENVER         CLOUDY    58  15  18 S14       30.10S
LIMON          CLOUDY    34  28  79 N5        30.13F WCI  30
ASPEN          CLOUDY    42  15  33 S8        30.33R
LARAMIE        CLOUDY    43  16  33 SW8       30.19R
CASPER         CLOUDY    57  13  17 SW20      30.00F
CHEYENNE       CLOUDY    49  19  30 SW8       30.12S
SCOTTSBLUFF    CLOUDY    49  26  41 N5        29.97S
GRAND ISLAND   CLEAR     57  45  64 S9        29.99S
OMAHA          CLEAR     57  46  66 S7        30.00S
SIOUX FALLS    CLEAR     61  46  57 S13       29.91R
PIERRE         CLEAR     54  37  52 CALM      29.76F
RAPID CITY     CLOUDY    48  27  44 W7        29.84S
BISMARCK       CLOUDY    64  25  22 S9        29.66F
KANSAS CITY    CLEAR     54  47  77 S10       30.10R
HILL CITY      CLEAR     54  40  59 SW8       30.02R
WICHITA        CLEAR     57  47  69 S13       30.08S
DODGE CITY     CLEAR     58  41  53 S13       30.05S
OKLAHOMA CITY  PTCLDY    56  46  69 S10       30.12R
DALLAS         CLEAR     62  42  47 SE9       30.14R
AMARILLO       CLEAR     60  41  49 S12       30.10S
$$




USA.gov is the U.S. government's official web portal to all federal, state and local government web resources and services.